Track STARLINK-3045 now! 10-day predictions STARLINK-3045 is classified as:
1 49173U 21082AV 22186.35585681 -.00000430 00000-0 -29540-4 0 9990 2 49173 69.9991 61.1340 0002858 265.7077 94.3755 14.96722769 45264